, CA

(GMT )
Point Mugu

Weather History for KNTD - January, 2012

Change the Weather History Date:

Wednesday, January 11, 2012

  Actual Average Record
Temperature  
Mean Temperature 50 °F -  
Max Temperature 60 °F 61 °F 82 °F (2009)
Min Temperature 39 °F 44 °F 36 °F (2013)
Degree Days  
Heating Degree Days 16    
Moisture  
Dew Point 45 °F    
Average Humidity 81    
Maximum Humidity 93    
Minimum Humidity 49    
Precipitation  
Precipitation 0.00 in - - ()
Sea Level Pressure  
Sea Level Pressure 30.03 in    
Wind  
Wind Speed 4 mph (NNW)    
Max Wind Speed 8 mph    
Max Gust Speed -    
Visibility 7 miles    
Events      
Averages and records for this station are not official NWS values.
T = Trace of Precipitation, MM = Missing Value Source: NWS Daily Summary

Daily Weather History Graph

Daily Weather History Graph

Search for Another Location

Airport or City:

Trip Planner

Search our weather history database for the weather conditions in past years. The results will help you decide how hot, cold, wet, or windy it might be!

Date:

Astronomy

Jan. 11, 2012 Rise Set
Actual Time 7:02 AM PST 5:06 PM PST
Civil Twilight 6:35 AM PST 5:33 PM PST
Nautical Twilight 6:04 AM PST 6:04 PM PST
Astronomical Twilight 5:34 AM PST 6:34 PM PST
Moon 8:00 PM PST (1/11) 8:25 AM PST (1/11)
Length of Visible Light 10h 58m
Length of Day
10h 03m
Waning Gibbous, 93% of the Moon is Illuminated
Jan 11
Waning Gibbous
Jan 16
Last Quarter
Jan 22
New
Jan 30
First Quarter
Feb 7
Full

Hourly Weather History & Observations

Time (PST) Temp. Windchill Dew Point Humidity Pressure Visibility Wind Dir Wind Speed Gust Speed Precip Events Conditions
12:54 AM 44.1 °F 41.5 °F 42.1 °F 93% 30.06 in - North 4.6 mph - N/A   Clear
1:54 AM 45.0 °F 43.5 °F 41.0 °F 86% 30.06 in - North 3.5 mph - N/A   Clear
2:54 AM 45.0 °F 43.5 °F 39.9 °F 82% 30.06 in - North 3.5 mph - N/A   Clear
3:54 AM 43.0 °F - 39.0 °F 86% 30.05 in - Calm Calm - N/A   Clear
4:54 AM 39.0 °F 36.8 °F 36.0 °F 89% 30.05 in - NE 3.5 mph - N/A   Clear
5:54 AM 41.0 °F 39.0 °F 37.0 °F 86% 30.06 in 7.0 mi NNE 3.5 mph - N/A   Mostly Cloudy
6:54 AM 41.0 °F 37.1 °F 37.0 °F 86% 30.07 in 7.0 mi North 5.8 mph - N/A   Mostly Cloudy
7:54 AM 41.0 °F 39.0 °F 36.0 °F 82% 30.07 in 7.0 mi NE 3.5 mph - N/A   Mostly Cloudy
8:54 AM 46.0 °F 43.1 °F 37.9 °F 73% 30.07 in 7.0 mi North 5.8 mph - N/A   Mostly Cloudy
9:54 AM 51.1 °F - 41.0 °F 68% 30.07 in 7.0 mi Calm Calm - N/A   Overcast
10:54 AM 57.0 °F - 44.1 °F 62% 30.06 in 7.0 mi SW 5.8 mph - N/A   Mostly Cloudy
11:54 AM 60.1 °F - 41.0 °F 49% 30.04 in 7.0 mi Calm Calm - N/A   Overcast
12:54 PM 59.0 °F - 52.0 °F 78% 30.01 in 7.0 mi WSW 4.6 mph - N/A   Overcast
1:54 PM 59.0 °F - 53.1 °F 81% 30.00 in 7.0 mi WSW 8.1 mph - N/A   Overcast
2:54 PM 57.9 °F - 52.0 °F 81% 29.99 in 7.0 mi West 5.8 mph - N/A   Mostly Cloudy
3:54 PM 57.9 °F - 51.1 °F 78% 29.99 in 7.0 mi WNW 4.6 mph - N/A   Mostly Cloudy
4:54 PM 55.9 °F - 50.0 °F 80% 30.00 in 7.0 mi NW 4.6 mph - N/A   Mostly Cloudy
5:12 PM - - - N/A% - - North - - N/A   Unknown
5:54 PM 54.0 °F - 48.0 °F 80% 30.00 in 7.0 mi NNW 4.6 mph - N/A   Mostly Cloudy
6:54 PM 52.0 °F - 48.0 °F 86% 30.00 in 7.0 mi Calm Calm - N/A   Mostly Cloudy
7:54 PM 52.0 °F - 48.0 °F 86% 30.00 in 7.0 mi WNW 3.5 mph - N/A   Mostly Cloudy
8:54 PM 53.1 °F - 50.0 °F 89% 29.99 in 7.0 mi NNE 5.8 mph - N/A   Mostly Cloudy
9:54 PM 53.1 °F - 48.9 °F 86% 30.00 in 7.0 mi North 5.8 mph - N/A   Overcast
10:54 PM 51.1 °F - 48.0 °F 89% 30.02 in 7.0 mi West 5.8 mph - N/A   Overcast
11:54 PM 53.1 °F - 50.0 °F 89% 30.00 in - North 8.1 mph - N/A   Clear